DW8180 Pace FL US current weather conditions

sailwx.info

Wind from 353

Air temperature 13.9° C
Dewpoint 12.3° C

Last reported at 2020-Sep-30 04:05 UTC.
Time now 2020-Sep-30 05:00 UTC

Location: N 30°35' W 087°09'.
View on Google Maps.

See reports from other nearby stations

  
Tides and Currents Weather Stations Pressure Air Temp Water Temp Dewpoint Dewpoint Depression Visibility Wind Speed Wind Dir Waves Ship Positions
date/time (UTC)wind fromknots sea level pressurealtimeterstation pressurevisibilityair tempwater tempwave heightnotes
2020-Sep-30 04:05 353 13.9
2020-Sep-30 03:55 353 13.9
2020-Sep-30 03:45 353 14.4
2020-Sep-30 03:40 353 14.4
2020-Sep-30 03:35 353 15.0
2020-Sep-30 03:25 353 15.0
2020-Sep-30 03:20 353 15.6
2020-Sep-30 03:10 353 15.6
2020-Sep-30 03:05 353 16.1
2020-Sep-30 02:55 353 16.1
2020-Sep-30 02:45 353 0 16.7
2020-Sep-30 02:40 353 1 16.7
2020-Sep-30 02:35 326 1 16.7
2020-Sep-30 02:25 336 17.2
2020-Sep-30 02:20 336 2 17.2
2020-Sep-30 02:10 356 1 17.2
2020-Sep-30 02:05 338 1 17.2
2020-Sep-30 01:55 335 17.2
2020-Sep-30 01:50 340 0 17.2
2020-Sep-30 01:40 332 1 17.2
2020-Sep-30 01:30 335 1 gusting 0 16.7
2020-Sep-30 01:25 314 0 gusting 0 16.7
2020-Sep-30 01:20 340 0 16.7
2020-Sep-30 01:15 320 1 16.7
2020-Sep-30 01:10 344 16.7
2020-Sep-30 01:00 344 16.7
2020-Sep-30 00:55 344 17.2
2020-Sep-30 00:45 344 17.8
2020-Sep-30 00:40 344 17.8
2020-Sep-30 00:30 344 18.3
2020-Sep-30 00:25 344 18.3
2020-Sep-30 00:20 344 18.3
2020-Sep-30 00:15 344 18.9
2020-Sep-30 00:10 344 18.9
2020-Sep-30 00:00 344 19.4
2020-Sep-29 23:55 344 20.0
2020-Sep-29 23:50 344 20.0
2020-Sep-29 23:40 356 0 20.6
2020-Sep-29 23:35 356 2 21.1
2020-Sep-29 23:25 359 1 gusting 0 21.1
2020-Sep-29 23:20 359 2 gusting 0 21.1
2020-Sep-29 23:15 354 4 gusting 0 21.7
2020-Sep-29 23:10 345 2 gusting 0 21.7
2020-Sep-29 23:05 333 6 gusting 0 21.7
2020-Sep-29 22:55 348 3 gusting 0 22.2
2020-Sep-29 22:45 338 6 gusting 0 22.2
2020-Sep-29 22:40 328 7 gusting 0 22.2
2020-Sep-29 22:35 292 2 gusting 0 22.2
2020-Sep-29 22:30 004 5 gusting 0 22.2
2020-Sep-29 22:25 341 5 gusting 0 22.8
2020-Sep-29 22:15 346 3 gusting 0 22.8
2020-Sep-29 22:10 358 3 gusting 0 23.3
2020-Sep-29 22:05 012 6 gusting 0 23.3
2020-Sep-29 21:55 309 4 gusting 0 23.3
2020-Sep-29 21:50 304 2 gusting 0 22.8
2020-Sep-29 21:45 316 1 gusting 0 22.8
2020-Sep-29 21:35 316 5 gusting 1 22.8
2020-Sep-29 21:25 321 6 gusting 0 22.8
2020-Sep-29 21:20 272 6 gusting 0 22.8
2020-Sep-29 21:15 315 9 gusting 1 23.3
2020-Sep-29 21:10 356 8 gusting 1 22.8
2020-Sep-29 21:05 314 5 gusting 0 22.8
2020-Sep-29 21:00 307 7 gusting 0 22.2
2020-Sep-29 20:55 340 6 gusting 1 22.2
2020-Sep-29 20:45 307 4 gusting 1 21.7
2020-Sep-29 20:40 359 6 gusting 1 21.7
2020-Sep-29 20:35 337 10 gusting 1 21.7
2020-Sep-29 20:25 359 6 gusting 1 21.7
2020-Sep-29 20:20 355 6 gusting 1 21.7
2020-Sep-29 20:10 318 3 gusting 1 21.7
2020-Sep-29 20:05 010 4 gusting 1 21.7
2020-Sep-29 19:55 332 5 gusting 1 21.7
2020-Sep-29 19:45 353 4 gusting 0 21.1
2020-Sep-29 19:40 359 6 gusting 0 21.1
2020-Sep-29 19:35 320 8 gusting 0 21.1
2020-Sep-29 19:25 333 6 gusting 0 21.1
2020-Sep-29 19:20 360 4 gusting 0 20.6
2020-Sep-29 19:15 328 4 gusting 1 20.6
2020-Sep-29 19:10 307 4 gusting 1 20.6
2020-Sep-29 19:05 019 7 gusting 1 20.6
2020-Sep-29 18:55 343 7 gusting 1 21.1
2020-Sep-29 18:50 314 10 gusting 1 21.1
2020-Sep-29 18:40 346 4 gusting 1 20.6
2020-Sep-29 18:30 352 6 gusting 1 20.6
2020-Sep-29 18:25 336 5 gusting 1 20.6
2020-Sep-29 18:20 297 6 gusting 1 20.6
2020-Sep-29 18:10 312 8 gusting 1 20.0
2020-Sep-29 18:05 356 11 gusting 0 20.0
2020-Sep-29 17:55 354 2 gusting 0 19.4
2020-Sep-29 17:45 343 5 gusting 1 19.4
2020-Sep-29 17:35 325 11 gusting 1 18.9
2020-Sep-29 17:25 314 4 gusting 1 18.3
2020-Sep-29 17:15 308 6 gusting 0 18.3
2020-Sep-29 17:10 286 6 gusting 0 18.3
2020-Sep-29 17:05 330 2 gusting 0 18.3
2020-Sep-29 16:55 008 3 gusting 0 18.3
2020-Sep-29 16:50 359 2 gusting 0 18.9
2020-Sep-29 16:40 360 5 gusting 1 20.0
2020-Sep-29 16:35 001 3 gusting 1 20.0
2020-Sep-29 16:25 001 5 gusting 1 20.0
2020-Sep-29 16:20 351 6 gusting 1 20.0
2020-Sep-29 16:10 314 7 gusting 0 20.0
2020-Sep-29 16:05 285 5 gusting 0 20.0
2020-Sep-29 15:55 019 4 gusting 0 20.0
2020-Sep-29 15:50 309 6 gusting 0 20.0
2020-Sep-29 15:40 352 4 gusting 1 20.0
2020-Sep-29 15:35 322 10 gusting 1 20.0
2020-Sep-29 15:25 013 8 gusting 0 19.4
2020-Sep-29 15:20 330 3 gusting 0 19.4
2020-Sep-29 15:10 354 7 gusting 0 19.4
2020-Sep-29 15:05 004 9 gusting 1 19.4
2020-Sep-29 15:00 352 7 gusting 1 18.9
2020-Sep-29 14:55 330 9 gusting 1 18.9
2020-Sep-29 14:45 337 9 gusting 1 18.9
2020-Sep-29 14:40 319 10 gusting 1 18.9
2020-Sep-29 14:35 334 6 gusting 1 18.9
2020-Sep-29 14:25 347 6 gusting 1 18.9
2020-Sep-29 14:20 330 4 gusting 1 18.9
2020-Sep-29 14:15 337 9 gusting 1 18.9
2020-Sep-29 14:10 351 6 gusting 1 18.9
2020-Sep-29 14:05 357 3 gusting 1 18.9
2020-Sep-29 14:00 359 13 gusting 1 18.9
2020-Sep-29 13:50 330 6 gusting 0 18.9
2020-Sep-29 13:40 359 11 gusting 1 18.3
2020-Sep-29 13:35 019 8 gusting 1 18.3
2020-Sep-29 13:25 343 4 gusting 1 18.3
2020-Sep-29 13:15 331 6 gusting 1 18.3
2020-Sep-29 13:10 302 4 gusting 1 18.3
2020-Sep-29 13:05 316 5 gusting 0 17.8
2020-Sep-29 12:55 345 7 gusting 0 17.8
2020-Sep-29 12:50 360 4 gusting 0 18.3
2020-Sep-29 12:40 353 2 gusting 0 18.3
2020-Sep-29 12:30 281 3 gusting 0 18.3
2020-Sep-29 12:25 307 3 gusting 0 18.3
2020-Sep-29 12:20 341 5 gusting 0 18.3
2020-Sep-29 12:10 356 7 gusting 0 17.8
2020-Sep-29 12:05 352 5 gusting 0 17.8
2020-Sep-29 11:55 342 3 gusting 1 17.8
2020-Sep-29 11:50 356 6 gusting 1 17.8
2020-Sep-29 11:40 008 4 gusting 0 17.8
2020-Sep-29 11:35 359 4 gusting 0 17.8
2020-Sep-29 11:25 354 3 gusting 0 17.8
2020-Sep-29 11:20 326 3 gusting 0 17.8
2020-Sep-29 11:10 343 5 gusting 0 17.8
2020-Sep-29 11:00 301 5 gusting 1 17.8
2020-Sep-29 10:55 328 6 gusting 1 17.8
2020-Sep-29 10:50 322 3 gusting 0 17.8
2020-Sep-29 10:45 323 6 gusting 0 17.8
2020-Sep-29 10:40 359 5 gusting 0 17.8
2020-Sep-29 10:35 330 3 gusting 0 17.8
2020-Sep-29 10:25 326 6 gusting 0 17.8
2020-Sep-29 10:20 317 5 gusting 0 17.8
2020-Sep-29 10:10 343 6 gusting 0 17.8
2020-Sep-29 10:05 321 6 gusting 0 17.8
2020-Sep-29 10:00 307 3 gusting 0 17.8
2020-Sep-29 09:55 358 4 gusting 0 18.3
2020-Sep-29 09:45 356 5 gusting 0 18.3
2020-Sep-29 09:40 344 5 gusting 0 18.3
2020-Sep-29 09:35 349 4 gusting 0 18.3
2020-Sep-29 09:25 328 8 gusting 0 18.3
2020-Sep-29 09:20 314 6 gusting 0 18.3
2020-Sep-29 09:10 334 6 gusting 0 18.3
2020-Sep-29 09:00 330 6 gusting 0 18.3
2020-Sep-29 08:55 334 5 gusting 0 18.3
2020-Sep-29 08:50 333 6 gusting 0 18.3
2020-Sep-29 08:45 351 6 gusting 0 18.3
2020-Sep-29 08:40 336 3 gusting 0 18.9
2020-Sep-29 08:35 025 3 gusting 1 18.9
2020-Sep-29 08:25 314 6 gusting 1 18.9
2020-Sep-29 08:20 340 6 gusting 0 18.9
2020-Sep-29 08:10 337 6 gusting 0 18.9
2020-Sep-29 08:00 347 8 gusting 0 18.9
2020-Sep-29 07:55 001 5 gusting 0 18.9
2020-Sep-29 07:45 332 6 gusting 0 18.9
2020-Sep-29 07:40 342 4 gusting 0 18.9
2020-Sep-29 07:35 326 4 gusting 0 18.9
2020-Sep-29 07:25 327 8 gusting 0 18.9
2020-Sep-29 07:15 315 6 gusting 0 18.9
2020-Sep-29 07:10 327 6 gusting 1 19.4
2020-Sep-29 07:05 334 4 gusting 1 19.4
2020-Sep-29 06:55 344 6 gusting 1 19.4
2020-Sep-29 06:50 335 8 gusting 1 19.4
2020-Sep-29 06:40 349 5 gusting 0 19.4
2020-Sep-29 06:35 352 5 gusting 0 19.4
2020-Sep-29 06:25 337 0 gusting 0 19.4
2020-Sep-29 06:20 352 6 gusting 0 19.4
2020-Sep-29 06:15 341 4 gusting 0 19.4
2020-Sep-29 06:05 352 6 gusting 0 19.4
2020-Sep-29 05:55 338 6 gusting 0 19.4
2020-Sep-29 05:45 359 8 gusting 0 20.0
2020-Sep-29 05:40 283 3 gusting 1 20.0
2020-Sep-29 05:30 323 5 gusting 0 20.6
2020-Sep-29 05:25 347 3 gusting 0 20.6
2020-Sep-29 05:20 317 3 gusting 0 20.6
2020-Sep-29 05:10 297 3 gusting 0 21.1
2020-Sep-29 05:05 333 6 gusting 0 21.1
2020-Sep-29 04:55 304 2 gusting 0 21.1
2020-Sep-29 04:50 340 5 gusting 0 21.7
2020-Sep-29 04:40 299 7 gusting 0 22.2
2020-Sep-29 04:35 340 4 gusting 0 22.2
2020-Sep-29 04:25 342 8 gusting 0 22.8
2020-Sep-29 04:20 329 5 gusting 0 22.8
2020-Sep-29 04:10 295 3 gusting 0 22.8
2020-Sep-29 04:05 314 2 gusting 0 22.8
2020-Sep-29 03:55 306 3 gusting 0 22.8
2020-Sep-29 03:50 300 1 gusting 0 22.8
2020-Sep-29 03:40 339 4 gusting 0 22.8
2020-Sep-29 03:35 310 2 gusting 0 22.8
2020-Sep-29 03:25 321 6 gusting 0 22.8
2020-Sep-29 03:15 319 2 gusting 0 22.8
2020-Sep-29 03:10 302 2 gusting 0 22.8
2020-Sep-29 03:05 287 1 gusting 0 23.3
2020-Sep-29 02:55 288 0 gusting 0 23.3
2020-Sep-29 02:50 312 0 gusting 0 23.3
2020-Sep-29 02:45 302 0 gusting 0 23.3
2020-Sep-29 02:40 271 4 gusting 0 23.3
2020-Sep-29 02:30 300 4 gusting 0 23.3
2020-Sep-29 02:25 274 4 gusting 0 23.9
2020-Sep-29 02:20 299 2 gusting 0 23.3
2020-Sep-29 02:15 300 2 gusting 0 23.3
2020-Sep-29 02:10 321 0 gusting 0 23.3
2020-Sep-29 02:05 283 1 gusting 0 23.3
2020-Sep-29 01:55 309 2 gusting 0 23.3
2020-Sep-29 01:45 304 3 gusting 0 23.9
2020-Sep-29 01:40 359 5 gusting 0 23.9
2020-Sep-29 01:35 355 2 23.9
2020-Sep-29 01:30 354 3 23.9
2020-Sep-29 01:25 344 1 gusting 0 24.4
2020-Sep-29 01:15 319 1 24.4
2020-Sep-29 01:10 326 3 24.4
2020-Sep-29 01:05 304 1 25.0
2020-Sep-29 00:55 315 2 gusting 0 25.0
2020-Sep-29 00:45 324 2 gusting 0 25.6
2020-Sep-29 00:40 311 4 gusting 0 25.6
2020-Sep-29 00:35 310 3 gusting 0 25.6
2020-Sep-29 00:25 278 3 gusting 0 26.1
2020-Sep-29 00:20 281 4 gusting 0 26.7
2020-Sep-29 00:15 311 1 gusting 0 26.7
2020-Sep-29 00:10 279 6 gusting 0 26.7
2020-Sep-29 00:05 331 5 gusting 0 26.7
2020-Sep-28 23:55 195 0 27.2
2020-Sep-28 23:50 195 27.8
2020-Sep-28 23:40 249 1 gusting 0 27.8
2020-Sep-28 23:35 241 2 gusting 0 27.8
2020-Sep-28 23:25 255 1 gusting 0 28.3
2020-Sep-28 23:15 233 1 gusting 0 28.3
2020-Sep-28 23:10 181 28.3
2020-Sep-28 23:05 188 2 gusting 0 28.9
2020-Sep-28 22:55 212 0 gusting 0 28.9
2020-Sep-28 22:50 233 6 gusting 0 29.4
2020-Sep-28 22:45 155 2 gusting 0 29.4
2020-Sep-28 22:40 210 2 gusting 0 30.0
2020-Sep-28 22:35 219 2 gusting 0 30.0
2020-Sep-28 22:30 272 4 gusting 0 30.6
2020-Sep-28 22:25 207 6 gusting 0 30.6
2020-Sep-28 22:15 179 2 31.1
2020-Sep-28 22:10 181 3 31.1
2020-Sep-28 22:05 146 0 30.6
2020-Sep-28 22:00 148 2 31.1
2020-Sep-28 21:55 162 0 31.1
2020-Sep-28 21:50 176 1 gusting 0 31.1
2020-Sep-28 21:45 155 2 gusting 0 31.7
2020-Sep-28 21:40 135 1 gusting 0 32.2
2020-Sep-28 21:35 169 3 gusting 0 32.2
2020-Sep-28 21:25 137 3 gusting 0 32.2
2020-Sep-28 21:20 138 4 gusting 0 32.2
2020-Sep-28 21:10 224 3 gusting 0 32.8
2020-Sep-28 21:05 181 3 gusting 0 32.8
2020-Sep-28 21:00 169 0 gusting 0 32.8
2020-Sep-28 20:55 162 0 gusting 0 32.2
2020-Sep-28 20:50 160 3 gusting 0 32.2
2020-Sep-28 20:40 180 3 gusting 0 32.2
2020-Sep-28 20:35 148 1 gusting 0 32.2
2020-Sep-28 20:25 180 1 gusting 0 31.7
2020-Sep-28 20:15 167 4 gusting 0 31.7
2020-Sep-28 20:10 174 5 gusting 0 31.7
2020-Sep-28 20:05 127 6 gusting 0 31.7
2020-Sep-28 19:55 169 5 gusting 0 31.1
2020-Sep-28 19:45 156 2 gusting 0 31.1
2020-Sep-28 19:40 175 4 gusting 0 31.1
2020-Sep-28 19:35 176 5 gusting 0 31.1
2020-Sep-28 19:25 139 6 gusting 1 30.6
2020-Sep-28 19:15 184 7 gusting 1 30.0
2020-Sep-28 19:10 129 4 gusting 1 29.4
2020-Sep-28 19:05 137 7 gusting 1 30.0
2020-Sep-28 19:00 130 7 gusting 1 30.6
2020-Sep-28 18:55 169 3 gusting 1 30.0
2020-Sep-28 18:50 139 6 gusting 1 29.4
2020-Sep-28 18:40 143 6 gusting 0 28.9
2020-Sep-28 18:30 139 6 gusting 0 29.4
2020-Sep-28 18:25 123 10 gusting 0 29.4
2020-Sep-28 18:20 160 4 gusting 1 28.9
2020-Sep-28 18:10 186 2 gusting 1 29.4
2020-Sep-28 18:05 166 2 gusting 1 30.0
2020-Sep-28 17:55 147 7 gusting 1 30.6
2020-Sep-28 17:50 134 3 gusting 1 30.6
2020-Sep-28 17:40 197 5 gusting 0 30.6
2020-Sep-28 17:35 148 5 gusting 0 30.6
2020-Sep-28 17:25 203 6 gusting 0 30.6
2020-Sep-28 17:15 212 4 gusting 0 31.1
2020-Sep-28 17:10 148 3 gusting 0 31.1
2020-Sep-28 17:05 151 1 gusting 0 31.1
2020-Sep-28 16:55 110 4 gusting 0 31.1
2020-Sep-28 16:50 153 2 gusting 0 31.1
2020-Sep-28 16:41 165 5 gusting 0 31.1
2020-Sep-28 16:35 168 1 31.1
2020-Sep-28 16:30 167 0 30.6
2020-Sep-28 16:25 308 1 gusting 0 30.0
2020-Sep-28 16:20 225 1 gusting 0 30.0
2020-Sep-28 16:15 326 3 gusting 0 30.0
2020-Sep-28 16:10 245 4 gusting 0 30.0
2020-Sep-28 16:00 295 3 gusting 0 30.0
2020-Sep-28 15:55 251 3 gusting 0 30.0
2020-Sep-28 15:50 231 4 gusting 0 30.0
2020-Sep-28 15:40 282 2 gusting 0 29.4
2020-Sep-28 15:30 217 5 gusting 0 29.4
2020-Sep-28 15:25 204 0 gusting 0 28.9
2020-Sep-28 15:20 210 1 gusting 0 28.9
2020-Sep-28 15:15 235 3 28.9
2020-Sep-28 15:05 265 1 gusting 0 28.3
2020-Sep-28 14:55 282 1 27.8
2020-Sep-28 14:50 248 27.8
2020-Sep-28 14:45 258 27.8
2020-Sep-28 14:40 281 1 27.8
2020-Sep-28 14:35 262 0 27.8
2020-Sep-28 14:25 219 1 27.8
2020-Sep-28 14:20 160 2 27.2
2020-Sep-28 14:15 173 27.2
2020-Sep-28 14:10 148 2 27.2
2020-Sep-28 14:05 141 0 26.7
2020-Sep-28 13:55 210 0 26.1
2020-Sep-28 13:50 306 0 25.6
2020-Sep-28 13:40 174 2 25.6
2020-Sep-28 13:35 131 0 25.0
2020-Sep-28 13:25 055 23.9
2020-Sep-28 13:20 055 23.3
2020-Sep-28 13:10 055 22.8
2020-Sep-28 13:05 055 22.8
2020-Sep-28 12:55 055 22.2
2020-Sep-28 12:50 039 22.2
2020-Sep-28 12:40 039 22.2
2020-Sep-28 12:35 039 22.2
2020-Sep-28 12:25 039 21.7
2020-Sep-28 12:20 039 21.7
2020-Sep-28 12:10 039 21.7
2020-Sep-28 12:05 039 21.7
2020-Sep-28 12:00 039 21.7
2020-Sep-28 11:55 039 21.7
2020-Sep-28 11:50 039 21.7
2020-Sep-28 11:40 039 21.7
2020-Sep-28 11:35 039 21.7
2020-Sep-28 11:25 024 0 21.7
2020-Sep-28 11:20 024 0 21.7
2020-Sep-28 11:10 024 21.7
2020-Sep-28 11:05 024 21.7
2020-Sep-28 11:00 024 21.7
2020-Sep-28 10:55 037 1 21.7
2020-Sep-28 10:50 037 21.7
2020-Sep-28 10:40 037 1 21.7
2020-Sep-28 10:35 037 1 21.7
2020-Sep-28 10:30 037 0 21.7
2020-Sep-28 10:25 038 1 21.7
2020-Sep-28 10:20 035 1 21.7
2020-Sep-28 10:10 023 0 21.7
2020-Sep-28 10:05 030 1 21.7
2020-Sep-28 09:55 030 0 21.7
2020-Sep-28 09:50 030 2 21.7
2020-Sep-28 09:45 038 21.7
2020-Sep-28 09:40 038 2 21.7
2020-Sep-28 09:35 038 21.7
2020-Sep-28 09:25 044 2 21.7
2020-Sep-28 09:20 014 21.7
2020-Sep-28 09:15 023 0 21.7
2020-Sep-28 09:10 023 0 21.7
2020-Sep-28 09:05 023 0 21.7
2020-Sep-28 09:00 039 0 21.7
2020-Sep-28 08:50 039 1 21.7
2020-Sep-28 08:45 039 0 21.7
2020-Sep-28 08:40 039 1 21.7
2020-Sep-28 08:35 039 21.7
2020-Sep-28 08:25 039 21.7
2020-Sep-28 08:20 043 1 21.7
2020-Sep-28 08:10 053 21.7
2020-Sep-28 08:05 053 21.7
2020-Sep-28 07:55 053 0 21.7
2020-Sep-28 07:50 053 0 21.7
2020-Sep-28 07:40 089 1 21.7
2020-Sep-28 07:35 141 21.7
2020-Sep-28 07:25 141 21.7
2020-Sep-28 07:15 141 21.7
2020-Sep-28 07:10 141 21.7
2020-Sep-28 07:05 141 21.7
2020-Sep-28 06:55 141 21.7
2020-Sep-28 06:50 141 22.2
2020-Sep-28 06:45 141 22.2
2020-Sep-28 06:40 141 22.2
2020-Sep-28 06:35 141 22.2
2020-Sep-28 06:25 141 22.2
2020-Sep-28 06:20 141 22.2
2020-Sep-28 06:10 141 22.2
2020-Sep-28 06:05 141 22.2
2020-Sep-28 05:55 141 22.2
2020-Sep-28 05:50 141 22.2
2020-Sep-28 05:45 141 22.2
2020-Sep-28 05:35 141 22.8
2020-Sep-28 05:30 141 22.8
2020-Sep-28 05:25 141 22.8
2020-Sep-28 05:20 141 22.8
2020-Sep-28 05:10 141 22.8
2020-Sep-28 05:05 141 22.8